| time (UTC) | temp C | wind direction | speed KPH | gust KPH | rain 1hr cm | rain 24hr cm | rain mn cm | humidity % | barometer mb |
| 20260503200148 | 12 | 167 | 4.8 | 12.9 | 0.00 | 0.00 | 0.00 | 46 | |
| 20260503195644 | 12 | 291 | 4.8 | 12.9 | 0.00 | 0.00 | 0.00 | 48 | |
| 20260503195142 | 12 | 274 | 1.6 | 4.8 | 0.00 | 0.00 | 0.00 | 50 | |
| 20260503194639 | 11 | 212 | 3.2 | 3.2 | 0.00 | 0.00 | 0.00 | 50 | |
| 20260503194134 | 11 | 116 | 1.6 | 9.7 | 0.00 | 0.00 | 0.00 | 52 | |
| 20260503193631 | 11 | 187 | 4.8 | 8.0 | 0.00 | 0.00 | 0.00 | 50 | |
| 20260503193126 | 11 | 273 | 4.8 | 9.7 | 0.00 | 0.00 | 0.00 | 50 | |
| 20260503192622 | 11 | 221 | 11.3 | 22.5 | 0.00 | 0.00 | 0.00 | 46 | |
| 20260503192118 | 11 | 256 | 9.7 | 17.7 | 0.00 | 0.00 | 0.00 | 46 | |
| 20260503191615 | 11 | 283 | 8.0 | 12.9 | 0.00 | 0.00 | 0.00 | 48 | |
| 20260503191112 | 11 | 281 | 4.8 | 12.9 | 0.00 | 0.00 | 0.00 | 51 | |
| 20260503190609 | 11 | 121 | 3.2 | 4.8 | 0.00 | 0.00 | 0.00 | 52 | |
| 20260503190106 | 11 | 265 | 4.8 | 14.5 | 0.00 | 0.00 | 0.00 | 49 | |
| 20260503185603 | 12 | 258 | 3.2 | 8.0 | 0.00 | 0.00 | 0.00 | 49 | |
| 20260503185102 | 12 | 276 | 4.8 | 9.7 | 0.00 | 0.00 | 0.00 | 52 | |
| 20260503184558 | 11 | 252 | 3.2 | 8.0 | 0.00 | 0.00 | 0.00 | 52 | |
| 20260503184055 | 11 | 285 | 3.2 | 4.8 | 0.00 | 0.00 | 0.00 | 54 | |
| 20260503183551 | 11 | 256 | 6.4 | 8.0 | 0.00 | 0.00 | 0.00 | 51 | |
| 20260503183049 | 10 | 174 | 1.6 | 9.7 | 0.00 | 0.00 | 0.00 | 53 | |
| 20260503182547 | 11 | 304 | 0.0 | 4.8 | 0.00 | 0.00 | 0.00 | 57 | |
| 20260503182045 | 11 | 55 | 0.0 | 3.2 | 0.00 | 0.00 | 0.00 | 56 | |
| 20260503181541 | 11 | 148 | 0.0 | 4.8 | 0.00 | 0.00 | 0.00 | 54 | |
| 20260503181038 | 12 | 138 | 1.6 | 3.2 | 0.00 | 0.00 | 0.00 | 52 | |
| 20260503180535 | 13 | 286 | 1.6 | 9.7 | 0.00 | 0.00 | 0.00 | 49 | |
| 20260503180032 | 13 | 87 | 1.6 | 4.8 | 0.00 | 0.00 | 0.00 | 52 | |
| 20260503175530 | 12 | 169 | 1.6 | 11.3 | 0.00 | 0.00 | 0.00 | 51 | |
| 20260503175027 | 11 | 84 | 0.0 | 3.2 | 0.00 | 0.00 | 0.00 | 57 | |
| 20260503174524 | 10 | 190 | 8.0 | 12.9 | 0.00 | 0.00 | 0.00 | 56 | |
| 20260503174020 | 10 | 184 | 4.8 | 8.0 | 0.00 | 0.00 | 0.00 | 57 | |
| 20260503173515 | 10 | 314 | 1.6 | 9.7 | 0.00 | 0.00 | 0.00 | 58 | |
| 20260503173012 | 10 | 241 | 1.6 | 14.5 | 0.00 | 0.00 | 0.00 | 57 | |
| 20260503172510 | 10 | 309 | 1.6 | 4.8 | 0.00 | 0.00 | 0.00 | 60 | |
| 20260503172006 | 10 | 227 | 1.6 | 3.2 | 0.00 | 0.00 | 0.00 | 57 | |
| 20260503171503 | 10 | 306 | 1.6 | 9.7 | 0.00 | 0.00 | 0.00 | 58 | |
| 20260503171000 | 11 | 164 | 4.8 | 8.0 | 0.00 | 0.00 | 0.00 | 57 | |
| 20260503170456 | 11 | 282 | 4.8 | 8.0 | 0.00 | 0.00 | 0.00 | 57 | |
| 20260503150849 | 7 | 118 | 3.2 | 11.3 | 0.00 | 0.00 | 0.00 | 74 | |
| 20260503150345 | 7 | 169 | 1.6 | 9.7 | 0.00 | 0.00 | 0.00 | 74 | |
| 20260503140309 | 8 | 327 | 3.2 | 8.0 | 0.00 | 0.00 | 0.00 | 78 | |
| 20260503131239 | 8 | 273 | 0.0 | 3.2 | 0.00 | 0.00 | 0.00 | 76 | |
| 20260503130736 | 10 | 343 | 1.6 | 8.0 | 0.00 | 0.00 | 0.00 | 77 | |
| 20260503130234 | 8 | 128 | 1.6 | 3.2 | 0.00 | 0.00 | 0.00 | 79 | |
| 20260503120200 | 7 | 57 | 0.0 | 8.0 | 0.00 | 0.00 | 0.00 | 81 | |
| 20260503110627 | 5 | 155 | 1.6 | 3.2 | 0.00 | 0.00 | 0.00 | 87 | |
| 20260503110124 | 5 | 6 | 0.0 | 1.6 | 0.00 | 0.00 | 0.00 | 88 | |
| 20260503081440 | 6 | 310 | 0.0 | 1.6 | 0.00 | 0.00 | 0.00 | 84 | |
| 20260503080937 | 6 | 291 | 0.0 | 1.6 | 0.00 | 0.00 | 0.00 | 84 | |
| 20260503080433 | 6 | 293 | 1.6 | 1.6 | 0.00 | 0.00 | 0.00 | 84 | |
| 20260503072910 | 6 | 1 | 0.0 | 1.6 | 0.00 | 0.00 | 0.00 | 83 | |
| 20260503072407 | 6 | 14 | 0.0 | 0.0 | 0.00 | 0.00 | 0.00 | 82 | |
| 20260503071904 | 6 | 23 | 0.0 | 1.6 | 0.00 | 0.00 | 0.00 | 82 | |
| 20260503071401 | 6 | 26 | 0.0 | 0.0 | 0.00 | 0.00 | 0.00 | 81 | |
| 20260503070856 | 6 | 9 | 0.0 | 1.6 | 0.00 | 0.00 | 0.00 | 80 | |
| 20260503070355 | 6 | 10 | 0.0 | 1.6 | 0.00 | 0.00 | 0.00 | 80 | |
| 20260503060320 | 7 | 29 | 0.0 | 1.6 | 0.00 | 0.00 | 0.00 | 76 | |
| 20260503054808 | 7 | 12 | 1.6 | 1.6 | 0.00 | 0.00 | 0.00 | 77 | |
| 20260503054304 | 7 | 194 | 0.0 | 1.6 | 0.00 | 0.00 | 0.00 | 74 | |
| 20260503053802 | 7 | 174 | 3.2 | 3.2 | 0.00 | 0.00 | 0.00 | 74 | |
| 20260503053300 | 7 | 12 | 0.0 | 1.6 | 0.00 | 0.00 | 0.00 | 76 | |
| 20260503052756 | 7 | 288 | 0.0 | 3.2 | 0.00 | 0.00 | 0.00 | 75 | |
| 20260503052253 | 7 | 32 | 0.0 | 1.6 | 0.00 | 0.00 | 0.00 | 75 | |
| 20260503051748 | 7 | 91 | 0.0 | 3.2 | 0.00 | 0.00 | 0.00 | 75 | |
| 20260503051246 | 7 | 58 | 3.2 | 3.2 | 0.00 | 0.00 | 0.00 | 76 | |
| 20260503050742 | 7 | 73 | 0.0 | 1.6 | 0.00 | 0.00 | 0.00 | 78 | |
| 20260503050239 | 7 | 359 | 0.0 | 1.6 | 0.00 | 0.00 | 0.00 | 79 | |
| 20260503045736 | 7 | 47 | 0.0 | 3.2 | 0.00 | 0.00 | 0.00 | 78 | |
| 20260503045234 | 7 | 305 | 1.6 | 1.6 | 0.00 | 0.00 | 0.00 | 77 | |
| 20260503044730 | 7 | 295 | 0.0 | 1.6 | 0.00 | 0.00 | 0.00 | 76 | |
| 20260503044228 | 7 | 334 | 0.0 | 3.2 | 0.00 | 0.00 | 0.00 | 78 | |
| 20260503043724 | 7 | 317 | 0.0 | 1.6 | 0.00 | 0.00 | 0.00 | 81 | |
| 20260503043222 | 8 | 313 | 0.0 | 3.2 | 0.00 | 0.00 | 0.00 | 80 | |
| 20260503042718 | 8 | 337 | 0.0 | 0.0 | 0.00 | 0.00 | 0.00 | 81 | |
| 20260503042215 | 7 | 92 | 0.0 | 1.6 | 0.00 | 0.00 | 0.00 | 82 | |
| 20260503041710 | 7 | 77 | 1.6 | 3.2 | 0.00 | 0.00 | 0.00 | 82 | |
| 20260503041208 | 8 | 323 | 1.6 | 1.6 | 0.00 | 0.00 | 0.00 | 85 | |
| 20260503040705 | 8 | 327 | 1.6 | 1.6 | 0.00 | 0.00 | 0.00 | 86 | |
| 20260503040203 | 8 | 313 | 0.0 | 1.6 | 0.00 | 0.00 | 0.00 | 85 | |
| 20260503035659 | 8 | 287 | 1.6 | 1.6 | 0.00 | 0.18 | 0.18 | 87 | |
| 20260503035157 | 8 | 338 | 0.0 | 1.6 | 0.00 | 0.18 | 0.18 | 90 | |
| 20260503034654 | 7 | 312 | 0.0 | 1.6 | 0.00 | 0.18 | 0.18 | 90 | |
| 20260503034151 | 7 | 340 | 0.0 | 0.0 | 0.00 | 0.18 | 0.18 | 96 | |
| 20260503033649 | 7 | 321 | 0.0 | 3.2 | 0.00 | 0.18 | 0.18 | 99 | |
| 20260503033146 | 7 | 327 | 0.0 | 1.6 | 0.00 | 0.18 | 0.18 | 99 | |
| 20260503032644 | 8 | 356 | 0.0 | 0.0 | 0.00 | 0.18 | 0.18 | 99 | |
| 20260503032143 | 8 | 315 | 0.0 | 0.0 | 0.00 | 0.18 | 0.18 | 99 | |
| 20260503031639 | 8 | 311 | 0.0 | 0.0 | 0.00 | 0.18 | 0.18 | 99 | |
| 20260503031137 | 8 | 297 | 0.0 | 0.0 | 0.00 | 0.18 | 0.18 | 99 | |
| 20260503030633 | 8 | 293 | 0.0 | 0.0 | 0.00 | 0.18 | 0.18 | 99 | |
| 20260503030130 | 8 | 302 | 0.0 | 0.0 | 0.00 | 0.18 | 0.18 | 99 | |
| 20260503025626 | 8 | 313 | 0.0 | 0.0 | 0.00 | 0.18 | 0.18 | 99 | |
| 20260503025125 | 8 | 317 | 0.0 | 0.0 | 0.00 | 0.18 | 0.18 | 99 | |
| 20260503024621 | 8 | 317 | 0.0 | 0.0 | 0.00 | 0.18 | 0.18 | 99 | |
| 20260503024118 | 8 | 318 | 0.0 | 0.0 | 0.00 | 0.18 | 0.18 | 99 | |
| 20260503023615 | 8 | 291 | 0.0 | 1.6 | 0.00 | 0.18 | 0.18 | 99 | |
| 20260503023112 | 8 | 341 | 0.0 | 0.0 | 0.00 | 0.18 | 0.18 | 99 | |
| 20260503022608 | 8 | 345 | 0.0 | 0.0 | 0.00 | 0.18 | 0.18 | 99 | |
| 20260503022102 | 8 | 352 | 0.0 | 0.0 | 0.00 | 0.18 | 0.18 | 99 | |
| 20260503021600 | 8 | 20 | 0.0 | 0.0 | 0.00 | 0.18 | 0.18 | 99 | |
| 20260503021056 | 8 | 20 | 0.0 | 0.0 | 0.00 | 0.18 | 0.18 | 99 | |
| 20260503020554 | 8 | 20 | 0.0 | 0.0 | 0.00 | 0.18 | 0.18 | 99 | |
| 20260503020050 | 8 | 20 | 0.0 | 0.0 | 0.00 | 0.18 | 0.18 | 99 | |
| 20260503015547 | 8 | 20 | 0.0 | 0.0 | 0.00 | 0.18 | 0.18 | 99 | |
| 20260503015045 | 8 | 20 | 0.0 | 0.0 | 0.00 | 0.18 | 0.18 | 99 | |
| 20260503014540 | 8 | 20 | 0.0 | 0.0 | 0.00 | 0.18 | 0.18 | 99 | |
| 20260503014038 | 8 | 20 | 0.0 | 0.0 | 0.00 | 0.18 | 0.18 | 99 | |
| 20260503013535 | 8 | 21 | 0.0 | 0.0 | 0.00 | 0.18 | 0.18 | 99 | |
| 20260503013033 | 8 | 20 | 0.0 | 1.6 | 0.00 | 0.18 | 0.18 | 99 | |
| 20260503012530 | 8 | 338 | 0.0 | 0.0 | 0.00 | 0.18 | 0.18 | 99 | |
| 20260503012026 | 8 | 310 | 0.0 | 0.0 | 0.00 | 0.18 | 0.18 | 99 | |
| 20260503011523 | 8 | 310 | 0.0 | 0.0 | 0.00 | 0.18 | 0.18 | 99 | |
| 20260503011021 | 8 | 310 | 0.0 | 0.0 | 0.00 | 0.18 | 0.18 | 99 | |
| 20260503010517 | 8 | 310 | 0.0 | 0.0 | 0.00 | 0.18 | 0.18 | 99 | |
| 20260503010015 | 8 | 310 | 0.0 | 0.0 | 0.00 | 0.18 | 0.18 | 99 | |
| 20260503005512 | 8 | 310 | 0.0 | 0.0 | 0.00 | 0.18 | 0.18 | 99 | |
| 20260503005009 | 8 | 310 | 0.0 | 0.0 | 0.00 | 0.18 | 0.18 | 99 | |
| 20260503004504 | 8 | 310 | 0.0 | 1.6 | 0.00 | 0.18 | 0.18 | 99 | |
| 20260503004003 | 8 | 308 | 0.0 | 1.6 | 0.00 | 0.18 | 0.18 | 99 | |
| 20260503003459 | 8 | 303 | 0.0 | 0.0 | 0.00 | 0.18 | 0.18 | 99 | |
| 20260503002956 | 8 | 313 | 1.6 | 1.6 | 0.00 | 0.18 | 0.18 | 99 | |
| 20260503002453 | 8 | 306 | 1.6 | 3.2 | 0.00 | 0.18 | 0.18 | 99 | |
| 20260503001949 | 8 | 298 | 3.2 | 3.2 | 0.00 | 0.18 | 0.18 | 99 | |
| 20260503001446 | 8 | 296 | 0.0 | 0.0 | 0.00 | 0.18 | 0.18 | 99 | |
| 20260503000944 | 8 | 296 | 0.0 | 0.0 | 0.00 | 0.18 | 0.18 | 99 | |
| 20260503000441 | 8 | 298 | 0.0 | 0.0 | 0.00 | 0.18 | 0.18 | 99 | |
| 20260502235938 | 9 | 297 | 0.0 | 1.6 | 0.00 | 0.18 | 0.18 | 99 | |
| 20260502235435 | 9 | 320 | 0.0 | 0.0 | 0.00 | 0.18 | 0.18 | 99 | |
| 20260502234932 | 9 | 311 | 0.0 | 1.6 | 0.00 | 0.18 | 0.18 | 99 | |
| 20260502234429 | 9 | 324 | 0.0 | 1.6 | 0.00 | 0.18 | 0.18 | 98 | |
| 20260502233926 | 9 | 278 | 1.6 | 1.6 | 0.00 | 0.18 | 0.18 | 98 | |
| 20260502233421 | 9 | 271 | 0.0 | 0.0 | 0.00 | 0.18 | 0.18 | 97 | |
| 20260502232919 | 10 | 270 | 1.6 | 1.6 | 0.00 | 0.18 | 0.18 | 97 | |
| 20260502232414 | 10 | 260 | 0.0 | 3.2 | 0.00 | 0.18 | 0.18 | 97 | |
| 20260502231912 | 10 | 283 | 3.2 | 3.2 | 0.00 | 0.18 | 0.18 | 97 | |
| 20260502231409 | 10 | 289 | 0.0 | 1.6 | 0.00 | 0.18 | 0.18 | 97 | |
| 20260502230907 | 10 | 290 | 0.0 | 1.6 | 0.00 | 0.18 | 0.18 | 98 | |
| 20260502230405 | 10 | 293 | 0.0 | 1.6 | 0.00 | 0.18 | 0.18 | 98 | |
| 20260502225902 | 10 | 304 | 0.0 | 1.6 | 0.00 | 0.18 | 0.18 | 98 | |
| 20260502225358 | 10 | 301 | 0.0 | 1.6 | 0.00 | 0.18 | 0.18 | 98 | |
| 20260502224855 | 10 | 323 | 3.2 | 3.2 | 0.00 | 0.18 | 0.18 | 98 | |
| 20260502224351 | 10 | 235 | 1.6 | 3.2 | 0.00 | 0.18 | 0.18 | 98 | |
| 20260502223849 | 10 | 282 | 1.6 | 1.6 | 0.00 | 0.18 | 0.18 | 98 | |
| 20260502223347 | 10 | 283 | 0.0 | 1.6 | 0.00 | 0.18 | 0.18 | 98 | |
| 20260502222844 | 10 | 277 | 0.0 | 0.0 | 0.00 | 0.18 | 0.18 | 98 | |
| 20260502222342 | 10 | 247 | 0.0 | 1.6 | 0.00 | 0.18 | 0.18 | 98 | |
| 20260502221837 | 10 | 276 | 0.0 | 1.6 | 0.00 | 0.18 | 0.18 | 97 | |
| 20260502221334 | 10 | 263 | 0.0 | 1.6 | 0.00 | 0.18 | 0.18 | 97 | |
| 20260502220831 | 10 | 286 | 0.0 | 0.0 | 0.00 | 0.18 | 0.18 | 97 | |
| 20260502220327 | 10 | 287 | 0.0 | 0.0 | 0.00 | 0.18 | 0.18 | 96 | |
| 20260502215823 | 10 | 275 | 1.6 | 3.2 | 0.00 | 0.18 | 0.18 | 96 | |
| 20260502215321 | 10 | 274 | 0.0 | 1.6 | 0.00 | 0.18 | 0.18 | 95 | |
| 20260502214818 | 10 | 285 | 1.6 | 1.6 | 0.13 | 0.18 | 0.18 | 95 | |
| 20260502214315 | 10 | 285 | 0.0 | 0.0 | 0.13 | 0.18 | 0.18 | 95 | |
| 20260502213812 | 10 | 285 | 0.0 | 0.0 | 0.00 | 0.15 | 0.15 | 95 | |
| 20260502213309 | 10 | 288 | 1.6 | 3.2 | 0.00 | 0.15 | 0.15 | 94 | |
| 20260502212808 | 10 | 311 | 1.6 | 3.2 | 0.18 | 0.15 | 0.15 | 93 | |
| 20260502212306 | 10 | 270 | 3.2 | 8.0 | 0.18 | 0.15 | 0.15 | 92 | |
| 20260502211802 | 10 | 283 | 0.0 | 4.8 | 0.00 | 0.13 | 0.13 | 92 | |
| 20260502211258 | 10 | 290 | 3.2 | 8.0 | 0.00 | 0.13 | 0.13 | 90 | |
| 20260502210755 | 10 | 282 | 4.8 | 8.0 | 0.00 | 0.13 | 0.13 | 88 | |
| 20260502210253 | 10 | 267 | 4.8 | 9.7 | 0.00 | 0.13 | 0.13 | 86 | |
| 20260502205750 | 10 | 297 | 4.8 | 9.7 | 0.00 | 0.13 | 0.13 | 86 | |
| 20260502205246 | 11 | 242 | 3.2 | 9.7 | 0.00 | 0.13 | 0.13 | 84 | |
| 20260502204743 | 12 | 322 | 0.0 | 3.2 | 0.00 | 0.13 | 0.13 | 75 | |
| 20260502204240 | 12 | 284 | 3.2 | 4.8 | 0.00 | 0.13 | 0.13 | 73 | |
| 20260502203738 | 12 | 30 | 1.6 | 8.0 | 0.00 | 0.13 | 0.13 | 73 | |
| 20260502203236 | 13 | 105 | 0.0 | 4.8 | 0.00 | 0.13 | 0.13 | 70 | |
| 20260502202730 | 14 | 23 | 1.6 | 4.8 | 0.00 | 0.13 | 0.13 | 69 | |
| 20260502202228 | 15 | 289 | 4.8 | 9.7 | 0.00 | 0.13 | 0.13 | 65 | |
| 20260502201725 | 15 | 207 | 4.8 | 9.7 | 0.00 | 0.13 | 0.13 | 64 | |
| 20260502201222 | 15 | 205 | 6.4 | 9.7 | 0.00 | 0.13 | 0.13 | 63 | |
| 20260502200718 | 15 | 121 | 1.6 | 9.7 | 0.00 | 0.13 | 0.13 | 64 |